This demonstration page uses our WeatherBlox Daily Observations layout. Learn more.

Left ArrowRight Arrow

39.92423, -83.80882

Hourly Observations for August 26, 2016

Temp ( °F °C ) Dew Point ( °F °C ) Humidity (%) Winds ( mph kmh ) Pressure ( in mb ) Visibility ( mi km ) Precip ( " mm )
12:56 am 00:56 Partly Cloudy 74 23.3 71 21.7 91 91 WNW 6 9 30.08 1019 10 16.0934 N/A
1:56 am 01:56 Clear 72 22.2 70 21.1 94 94 N N/A 30.08 1019 10 16.0934 N/A
2:56 am 02:56 Partly Cloudy with Mist and Fog 70 21.1 70 21.1 100 100 N N/A 30.09 1019 6 9.65604 N/A
3:46 am 03:46 Cloudy with Thunderstorms 73 23 72 22 94 94 NW 14 22 30.12 1020 7 11.26538 N/A
3:56 am 03:56 Cloudy with Light Thunderstorms 73 22.8 72 22.2 96 96 NNW 7 11 30.11 1020 8 12.87472 N/A
4:30 am 04:30 Mostly Cloudy 72 22 72 22 100 100 N N/A 30.12 1020 7 11.26538 N/A
4:56 am 04:56 Mostly Clear with Mist and Fog 71 21.7 71 21.7 100 100 N N/A 30.1 1019 5 8.0467 N/A
5:07 am 05:07 Mostly Clear with Mist and Fog 70 21 70 21 100 100 N N/A 30.09 1019 1.5 2.41401 N/A
5:16 am 05:16 Clear with Mist and Fog 70 21 70 21 100 100 N N/A 30.09 1019 0.75 1.207005 N/A
5:23 am 05:23 Clear with Fog 72 22 70 21 94 94 N N/A 30.09 1019 0.5 0.80467 N/A
5:36 am 05:36 Clear with Fog 70 21 68 20 94 94 SE 3 6 30.09 1019 0.25 0.402335 N/A
5:43 am 05:43 Clear with Mist and Fog 70 21 70 21 100 100 N N/A 30.09 1019 0.75 1.207005 N/A
5:53 am 05:53 Clear with Fog 70 21 70 21 100 100 N N/A 30.09 1019 0.5 0.80467 N/A
5:56 am 05:56 Clear with Fog 69 20.6 69 20.6 100 100 N N/A 30.1 1019 0.5 0.80467 N/A
6:17 am 06:17 Mostly Cloudy with Fog 70 21 70 21 100 100 N N/A 30.12 1020 0.5 0.80467 N/A
6:44 am 06:44 Clear with Mist and Fog 70 21 70 21 100 100 N N/A 30.12 1020 0.75 1.207005 N/A
6:52 am 06:52 Mostly Cloudy with Fog 68 20 66 19 94 94 N N/A 30.12 1020 0.25 0.402335 N/A
6:56 am 06:56 Mostly Cloudy with Fog 69 20.6 68 20 96 96 N N/A 30.11 1020 0.25 0.402335 N/A
7:04 am 07:04 Mostly Cloudy with Mist and Fog 68 20 66 19 94 94 N N/A 30.12 1020 1 1.60934 N/A
7:08 am 07:08 Partly Cloudy with Mist and Fog 68 20 66 19 94 94 N N/A 30.12 1020 2.5 4.02335 N/A
7:10 am 07:10 Mostly Cloudy with Fog 68 20 68 20 100 100 N N/A 30.12 1020 0.5 0.80467 N/A
7:18 am 07:18 Mostly Cloudy with Fog 68 20 66 19 94 94 N N/A 30.12 1020 0.25 0.402335 N/A
7:33 am 07:33 Mostly Cloudy with Mist and Fog 68 20 68 20 100 100 N N/A 30.12 1020 0.75 1.207005 N/A
7:37 am 07:37 Sunny with Mist and Fog 70 21 68 20 94 94 N N/A 30.12 1020 2 3.21868 N/A
7:44 am 07:44 Sunny 70 21 70 21 100 100 N N/A 30.12 1020 7 11.26538 N/A
7:56 am 07:56 Sunny 71 21.7 70 21.1 96 96 N N/A 30.13 1020 8 12.87472 N/A
8:56 am 08:56 Sunny 75 23.9 72 22.2 90 90 N 3 6 30.15 1021 10 16.0934 N/A
9:56 am 09:56 Mostly Sunny 78 25.6 72 22.2 82 82 E 3 6 30.16 1021 10 16.0934 N/A
10:36 am 10:36 Mostly Cloudy 79 26 73 23 84 84 SE 3 6 30.15 1021 10 16.0934 N/A
10:45 am 10:45 Mostly Cloudy 81 27 73 23 79 79 N N/A 30.12 1020 10 16.0934 N/A
10:56 am 10:56 Mostly Cloudy 81 27.2 73 22.8 77 77 N N/A 30.16 1021 10 16.0934 N/A
11:12 am 11:12 Partly Cloudy 81 27 73 23 79 79 VRB 3 6 30.12 1020 10 16.0934 N/A
11:56 am 11:56 Partly Cloudy 83 28.3 74 23.3 74 74 SE 5 7 30.14 1021 10 16.0934 N/A
12:32 pm 12:32 Mostly Cloudy 84 29 72 22 66 66 N N/A 30.12 1020 10 16.0934 N/A
12:56 pm 12:56 Cloudy 83 28.3 72 22.2 70 70 N N/A 30.14 1021 10 16.0934 N/A
1:24 pm 13:24 Mostly Cloudy 82 28 73 23 74 74 N 3 6 30.12 1020 10 16.0934 N/A
1:56 pm 13:56 Partly Cloudy 86 30 74 23.3 67 67 ESE 5 7 30.13 1020 10 16.0934 N/A
2:56 pm 14:56 Mostly Sunny 86 30 74 23.3 67 67 N N/A 30.12 1020 10 16.0934 N/A
3:56 pm 15:56 Mostly Cloudy 89 31.7 73 22.8 59 59 VRB 5 7 30.09 1019 10 16.0934 N/A
4:56 pm 16:56 Mostly Sunny 86 30 73 22.8 65 65 N N/A 30.08 1019 9 14.48406 N/A
5:56 pm 17:56 Mostly Cloudy 85 29.4 73 22.8 68 68 E 6 9 30.09 1019 10 16.0934 N/A
6:56 pm 18:56 Sunny 84 28.9 75 23.9 74 74 ENE 5 7 30.08 1019 10 16.0934 N/A
7:56 pm 19:56 Sunny 79 26.1 74 23.3 85 85 E 6 9 30.1 1019 10 16.0934 N/A
8:56 pm 20:56 Clear 78 25.6 74 23.3 87 87 ENE 6 9 30.12 1020 10 16.0934 N/A
9:54 pm 21:54 Partly Cloudy with Light Thunderstorms 77 25 73 23 89 89 ENE 6 9 30.15 1021 10 16.0934 N/A
9:56 pm 21:56 Partly Cloudy with Light Thunderstorms 76 24.4 73 22.8 91 91 ENE 6 9 30.14 1021 10 16.0934 N/A
10:09 pm 22:09 Mostly Cloudy with Light Rain 75 24 73 23 94 94 WNW 7 11 30.15 1021 10 16.0934 N/A
10:56 pm 22:56 Clear 76 24.4 71 21.7 85 85 N N/A 30.13 1020 10 16.0934 N/A
11:56 pm 23:56 Clear 73 22.8 70 21.1 90 90 ENE 3 6 30.12 1020 10 16.0934 N/A

Powered by AerisWeather